Location: Asheville, NC
(35.6000°N, 82.5500°W)
Time: 17:26:57
(UTC-04:00)

HO-68 - Pass Details

Date: 10 January 2018
Orbit: 1192 x 1205 km, 100.1° (Epoch: 21 July)

Event Time Altitude Azimuth Distance (km) Brightness Sun altitude
Rises 06:28:30 0° 28° (NNE) 4,095 ? -14.3°
Reaches altitude 10° 06:31:39 10° 41° (NE) 3,127 ? -13.7°
Maximum altitude 06:37:27 26° 96° (E) 2,137 ? -12.6°
Drops below altitude 10° 06:43:14 10° 150° (SSE) 3,116 ? -11.5°
Sets 06:46:20 0° 162° (SSE) 4,077 ? -10.9°
